Temp
50 50 51 51 52 53 53 53 55 54 55 55 55 56 56 57 57 55 54 54 54 54 54 54 54 53 53 54 54 54 54 53 53 53 52 52 52 51 51 52 53 55
48 49 50 50 50 51 52 52 52 53 53 54 54 55 56 56 56 55 54 53 53 53 53 53 53 53 53 52 52 51 52 52 51 52 51 50 51 51 50 50 51 53
48 47 48 47 48 48 49 50 51 51 52 52 53 54 53 55 54 55 54 53 52 52 52 52 52 52 52 51 51 50 50 50 50 51 50 49 50 50 50 50 51 50
47 47 47 47 47 47 48 48 48 50 50 50 51 52 53 52 53 53 52 51 51 51 51 51 51 51 50 50 49 49 49 49 50 50 49 49 49 49 49 50 50 50
46 47 47 48 47 48 47 47 47 47 47 49 49 50 51 51 50 50 50 50 50 49 50 49 49 49 49 49 48 48 48 48 48 49 48 48 49 48 48 49 48 48
46 47 47 47 47 47 47 47 47 47 46 47 47 48 48 48 48 48 49 49 49 49 48 48 48 48 48 48 47 47 47 47 48 47 47 47 47 48 47 47 47 47
45 45 45 46 46 46 46 46 47 47 47 46 47 47 48 47 47 47 48 48 48 48 48 47 47 47 47 47 47 46 47 46 46 46 46 46 47 47 47 47 47 46
45 45 45 45 44 44 44 44 45 46 46 47 46 47 47 47 47 46 46 47 47 47 47 47 47 47 47 47 46 45 45 45 45 45 45 45 45 45 46 46 46 45
45 45 45 44 43 43 43 43 43 44 45 44 45 46 46 46 46 46 46 46 46 46 46 46 47 47 47 46 46 45 45 45 44 45 44 44 44 45 45 46 45 45
44 44 44 44 44 44 43 43 43 43 43 43 44 43 43 43 44 45 45 45 44 45 45 45 46 45 45 46 45 45 44 44 45 44 44 44 44 44 45 45 45 44
44 43 43 43 43 43 43 43 43 43 43 42 42 42 43 43 42 42 42 43 42 43 44 44 44 44 44 44 45 44 44 44 44 44 44 44 44 44 43 45 45 44
43 43 42 43 42 42 43 43 42 42 41 41 42 41 42 42 43 42 42 42 42 41 42 42 43 43 43 43 43 44 44 44 44 44 44 44 44 44 44 44 44 44
43 43 43 42 42 42 43 42 42 41 40 40 41 40 41 41 42 42 43 43 43 43 42 41 41 42 42 42 42 43 43 43 43 43 43 44 44 44 44 44 44 44
42 43 43 42 42 42 41 41 41 41 40 40 39 39 39 39 40 40 41 42 42 42 43 43 42 41 41 41 42 42 41 41 42 41 42 42 43 43 44 44 44 43
42 42 42 42 41 40 40 40 39 40 40 39 39 39 39 39 39 39 39 40 41 42 42 41 40 40 40 40 40 40 41 40 40 40 41 41 41 42 43 43 43 43
41 41 41 40 40 39 38 38 38 38 39 38 38 39 39 39 39 39 39 39 40 40 41 40 40 40 38 39 40 39 39 39 39 39 39 39 39 40 41 42 42 42
40 40 39 38 38 38 35 35 36 36 36 36 37 36 37 38 38 38 38 39 39 39 39 39 39 40 39 41 41 41 39 38 37 37 37 38 38 38 39 39 41 41
39 38 37 36 36 33 33 33 33 34 35 35 35 35 36 36 37 37 38 38 38 39 38 39 39 39 40 40 41 41 40 38 37 36 36 37 37 37 38 39 39 40
38 35 34 33 33 33 31 31 31 32 33 34 34 35 35 35 36 36 36 37 38 37 37 38 38 39 40 40 40 40 40 39 38 37 37 37 37 37 37 37 38 38
37 34 33 33 33 31 31 30 30 30 32 34 34 34 33 33 34 34 34 36 36 36 36 37 38 38 39 39 39 39 39 39 36 36 36 36 37 38 38 37 37 37
33 34 33 32 32 31 29 28 28 28 29 31 33 33 32 31 32 32 33 33 33 33 34 35 36 38 38 38 38 39 39 39 36 36 36 36 37 37 38 38 38 38
34 32 32 31 31 29 28 27 27 27 27 30 32 32 31 31 31 31 30 30 31 31 32 32 35 37 37 38 38 38 38 36 35 35 35 35 35 37 37 38 38 38
34 32 31 30 29 27 26 26 26 25 27 29 29 29 28 28 28 28 29 29 29 30 30 31 32 35 36 37 37 38 37 34 34 34 35 34 36 36 37 38 38 38
32 30 29 29 27 26 25 25 25 26 26 27 27 26 26 26 26 26 27 28 28 28 30 30 31 33 35 36 36 37 36 33 33 34 33 34 34 36 37 38 38 36
31 29 28 27 26 25 25 23 23 24 25 26 26 25 24 25 25 24 24 25 26 27 30 30 30 31 34 35 36 36 35 33 33 33 32 32 33 34 36 36 37 37
28 27 26 25 24 23 23 23 23 23 23 24 23 23 22 22 22 22 21 23 25 26 26 27 28 29 31 34 35 35 36 34 33 32 31 31 32 33 33 34 36 36
MSLP
1013.89 1013.81 1013.65 1013.49 1013.29 1013.05 1012.81 1012.61 1012.33 1012.17 1012.01 1012.01 1012.05 1011.89 1011.77 1011.69 1011.81 1011.97 1012.13 1012.29 1012.37 1012.41 1012.41 1012.41 1012.45 1012.53 1012.61 1012.73 1012.77 1012.89 1012.89 1013.01 1013.25 1013.45 1013.65 1013.89 1013.97 1014.09 1014.09 1014.09 1014.09 1013.97
1014.29 1014.17 1014.01 1013.85 1013.61 1013.41 1013.21 1013.05 1012.85 1012.69 1012.49 1012.29 1012.13 1012.09 1011.97 1011.85 1011.81 1011.97 1012.09 1012.25 1012.33 1012.41 1012.41 1012.41 1012.41 1012.45 1012.53 1012.57 1012.65 1012.81 1012.77 1012.85 1012.97 1013.17 1013.37 1013.49 1013.61 1013.85 1013.81 1013.93 1014.01 1013.93
1014.45 1014.33 1014.21 1014.13 1014.01 1013.89 1013.69 1013.41 1013.25 1013.09 1012.85 1012.57 1012.37 1012.13 1012.01 1012.01 1012.01 1012.05 1012.09 1012.13 1012.21 1012.29 1012.37 1012.37 1012.41 1012.41 1012.45 1012.49 1012.53 1012.65 1012.69 1012.77 1012.89 1013.01 1013.17 1013.13 1013.33 1013.49 1013.41 1013.77 1013.81 1013.81
1014.65 1014.53 1014.37 1014.25 1014.17 1014.05 1013.89 1013.81 1013.65 1013.41 1013.13 1012.89 1012.65 1012.45 1012.17 1011.97 1011.97 1012.09 1012.17 1012.21 1012.21 1012.21 1012.25 1012.29 1012.33 1012.33 1012.37 1012.45 1012.53 1012.57 1012.57 1012.65 1012.69 1012.97 1013.05 1013.05 1013.09 1013.21 1013.29 1013.45 1013.57 1013.73
1015.01 1014.77 1014.49 1014.33 1014.21 1014.09 1014.01 1013.97 1013.85 1013.69 1013.41 1013.13 1012.93 1012.77 1012.45 1012.21 1012.13 1012.09 1012.13 1012.17 1012.21 1012.25 1012.25 1012.25 1012.25 1012.25 1012.29 1012.33 1012.41 1012.45 1012.49 1012.57 1012.65 1012.85 1012.89 1012.89 1012.85 1013.09 1013.09 1013.29 1013.29 1013.37
1015.45 1015.29 1015.09 1014.93 1014.77 1014.61 1014.45 1014.33 1014.13 1013.85 1013.49 1013.21 1013.05 1012.93 1012.69 1012.41 1012.21 1012.09 1012.09 1012.13 1012.13 1012.21 1012.17 1012.17 1012.17 1012.17 1012.21 1012.25 1012.29 1012.29 1012.29 1012.41 1012.41 1012.61 1012.65 1012.65 1012.65 1012.77 1012.89 1013.01 1013.01 1013.05
1015.49 1015.37 1015.25 1015.09 1014.97 1014.85 1014.73 1014.57 1014.25 1013.85 1013.49 1013.25 1013.13 1013.09 1012.85 1012.61 1012.29 1012.09 1012.01 1012.05 1012.05 1012.09 1012.13 1012.13 1012.09 1012.05 1012.05 1012.13 1012.17 1012.17 1012.21 1012.25 1012.29 1012.33 1012.37 1012.33 1012.41 1012.41 1012.57 1012.73 1012.73 1012.73
1015.61 1015.57 1015.53 1015.45 1015.37 1015.17 1015.01 1014.69 1014.33 1013.89 1013.53 1013.33 1013.25 1013.13 1013.01 1012.81 1012.41 1012.09 1011.93 1011.93 1012.01 1012.05 1012.05 1012.01 1011.97 1011.89 1011.89 1011.93 1012.01 1012.05 1012.05 1012.13 1012.21 1012.21 1012.21 1012.17 1012.17 1012.05 1012.13 1012.33 1012.45 1012.41
1015.81 1015.73 1015.61 1015.45 1015.33 1015.09 1014.97 1014.69 1014.45 1014.09 1013.81 1013.65 1013.45 1013.29 1013.09 1012.85 1012.53 1012.17 1011.89 1011.85 1011.89 1011.93 1012.01 1012.05 1011.97 1011.89 1011.77 1011.73 1011.73 1011.81 1011.81 1011.85 1011.89 1011.93 1011.97 1011.93 1011.89 1011.77 1011.89 1012.01 1012.09 1011.85
1015.97 1015.81 1015.61 1015.37 1015.17 1014.93 1014.81 1014.57 1014.41 1014.25 1014.09 1013.93 1013.69 1013.53 1013.25 1012.89 1012.57 1012.21 1011.93 1011.81 1011.81 1011.85 1011.93 1011.93 1011.89 1011.89 1011.77 1011.69 1011.65 1011.61 1011.61 1011.57 1011.61 1011.65 1011.65 1011.61 1011.57 1011.53 1011.61 1011.69 1011.57 1011.57
1015.93 1015.81 1015.65 1015.41 1015.21 1014.97 1014.81 1014.61 1014.45 1014.37 1014.25 1014.13 1013.81 1013.53 1013.17 1012.85 1012.57 1012.29 1012.05 1011.93 1011.89 1011.93 1011.93 1011.93 1011.89 1011.81 1011.69 1011.57 1011.49 1011.45 1011.45 1011.41 1011.37 1011.25 1011.21 1011.21 1011.21 1011.21 1011.29 1011.33 1011.25 1011.09
1015.93 1015.85 1015.73 1015.53 1015.37 1015.13 1014.85 1014.65 1014.53 1014.45 1014.37 1014.25 1014.01 1013.69 1013.29 1012.89 1012.57 1012.37 1012.29 1012.21 1012.13 1012.05 1012.01 1012.01 1011.89 1011.77 1011.61 1011.45 1011.33 1011.25 1011.25 1011.25 1011.17 1011.05 1010.89 1010.77 1010.69 1010.77 1010.85 1010.97 1010.89 1010.77
1016.05 1015.89 1015.77 1015.57 1015.41 1015.21 1014.97 1014.77 1014.57 1014.45 1014.37 1014.25 1014.01 1013.77 1013.41 1013.09 1012.81 1012.61 1012.49 1012.45 1012.33 1012.17 1012.05 1012.01 1011.93 1011.81 1011.61 1011.41 1011.25 1011.17 1011.13 1011.09 1011.01 1010.93 1010.69 1010.53 1010.41 1010.37 1010.41 1010.41 1010.41 1010.41
1016.17 1015.97 1015.85 1015.69 1015.53 1015.29 1015.09 1014.85 1014.65 1014.41 1014.21 1014.01 1013.81 1013.53 1013.25 1013.09 1012.97 1012.81 1012.65 1012.57 1012.41 1012.25 1012.09 1011.89 1011.81 1011.69 1011.53 1011.37 1011.17 1011.05 1011.01 1010.97 1010.97 1010.89 1010.73 1010.45 1010.21 1010.09 1010.01 1009.93 1009.93 1009.93
1016.09 1015.97 1015.81 1015.69 1015.57 1015.41 1015.21 1015.01 1014.73 1014.45 1014.13 1013.93 1013.73 1013.57 1013.33 1013.21 1013.09 1012.97 1012.77 1012.53 1012.33 1012.17 1012.05 1011.89 1011.69 1011.53 1011.33 1011.21 1011.09 1010.97 1010.89 1010.85 1010.81 1010.73 1010.57 1010.33 1010.09 1009.89 1009.69 1009.53 1009.41 1009.41
1016.01 1015.89 1015.77 1015.69 1015.61 1015.45 1015.29 1015.13 1014.89 1014.53 1014.25 1014.01 1013.81 1013.57 1013.37 1013.21 1013.09 1013.01 1012.89 1012.69 1012.45 1012.17 1011.93 1011.73 1011.53 1011.29 1011.05 1010.85 1010.77 1010.81 1010.81 1010.73 1010.69 1010.61 1010.49 1010.25 1009.97 1009.73 1009.41 1009.21 1009.01 1008.89
1016.13 1015.93 1015.89 1015.85 1015.73 1015.61 1015.53 1015.37 1015.09 1014.65 1014.33 1014.05 1013.81 1013.57 1013.41 1013.13 1012.93 1012.77 1012.57 1012.37 1012.17 1011.97 1011.69 1011.41 1011.17 1010.97 1010.81 1010.65 1010.53 1010.49 1010.49 1010.49 1010.45 1010.33 1010.25 1010.09 1009.89 1009.65 1009.33 1009.05 1008.77 1008.57
1016.21 1016.09 1016.05 1015.97 1015.81 1015.77 1015.69 1015.57 1015.25 1014.81 1014.37 1014.01 1013.73 1013.49 1013.21 1012.97 1012.85 1012.61 1012.29 1012.09 1011.85 1011.61 1011.41 1011.17 1010.89 1010.69 1010.61 1010.49 1010.37 1010.29 1010.25 1010.17 1010.05 1009.97 1009.85 1009.73 1009.53 1009.37 1009.09 1008.85 1008.65 1008.41
1016.29 1016.21 1016.13 1016.05 1015.97 1015.89 1015.85 1015.61 1015.25 1014.85 1014.45 1014.01 1013.65 1013.41 1013.25 1013.01 1012.69 1012.41 1012.17 1011.85 1011.61 1011.37 1011.13 1010.89 1010.65 1010.45 1010.37 1010.29 1010.21 1010.13 1009.97 1009.89 1009.69 1009.49 1009.37 1009.17 1008.97 1008.81 1008.65 1008.57 1008.45 1008.29
1016.21 1016.09 1015.97 1015.77 1015.61 1015.57 1015.45 1015.29 1015.09 1014.89 1014.45 1014.01 1013.65 1013.33 1013.17 1012.97 1012.65 1012.41 1012.09 1011.77 1011.57 1011.33 1011.01 1010.61 1010.33 1010.09 1010.09 1010.05 1009.93 1009.81 1009.65 1009.49 1009.33 1009.09 1008.85 1008.61 1008.37 1008.17 1008.09 1008.01 1007.97 1007.97
1015.97 1015.81 1015.65 1015.49 1015.37 1015.29 1015.17 1015.01 1014.89 1014.61 1014.33 1013.97 1013.53 1013.29 1013.13 1012.89 1012.57 1012.17 1011.85 1011.65 1011.49 1011.25 1010.97 1010.53 1010.09 1009.77 1009.69 1009.57 1009.45 1009.33 1009.17 1009.01 1008.81 1008.57 1008.33 1008.09 1007.77 1007.57 1007.49 1007.37 1007.33 1007.33
1015.57 1015.41 1015.17 1015.01 1015.05 1015.09 1015.09 1014.93 1014.73 1014.61 1014.33 1013.85 1013.41 1013.13 1012.93 1012.77 1012.45 1012.21 1011.89 1011.57 1011.29 1011.05 1010.81 1010.33 1009.81 1009.53 1009.37 1009.21 1009.01 1008.89 1008.77 1008.65 1008.41 1008.09 1007.81 1007.53 1007.21 1007.01 1006.89 1006.73 1006.61 1006.61
1015.21 1015.05 1014.81 1014.69 1014.65 1014.73 1014.69 1014.65 1014.57 1014.33 1014.05 1013.73 1013.37 1013.09 1012.85 1012.57 1012.37 1012.17 1011.81 1011.45 1011.09 1010.77 1010.49 1009.97 1009.45 1009.13 1008.97 1008.85 1008.61 1008.41 1008.37 1008.25 1008.01 1007.69 1007.33 1006.97 1006.57 1006.33 1006.25 1006.09 1005.93 1005.85
1014.85 1014.77 1014.53 1014.45 1014.45 1014.37 1014.33 1014.25 1014.21 1013.97 1013.77 1013.45 1013.21 1012.85 1012.57 1012.41 1012.13 1011.85 1011.49 1011.17 1010.85 1010.41 1010.01 1009.61 1009.01 1008.49 1008.37 1008.25 1008.05 1007.89 1007.81 1007.77 1007.53 1007.29 1006.93 1006.53 1006.05 1005.73 1005.57 1005.37 1005.17 1005.17
1014.81 1014.69 1014.53 1014.29 1014.21 1014.17 1014.13 1014.05 1013.89 1013.69 1013.41 1013.13 1012.85 1012.61 1012.33 1012.13 1011.89 1011.57 1011.05 1010.69 1010.29 1009.89 1009.37 1009.05 1008.57 1008.01 1007.69 1007.49 1007.33 1007.21 1007.21 1007.17 1007.01 1006.81 1006.49 1006.05 1005.65 1005.29 1005.05 1004.85 1004.53 1004.45
1015.05 1014.85 1014.57 1014.45 1014.29 1014.17 1014.13 1014.01 1013.73 1013.41 1013.09 1012.85 1012.65 1012.49 1012.25 1011.97 1011.65 1011.25 1010.85 1010.25 1009.77 1009.41 1009.05 1008.65 1008.29 1007.69 1007.13 1006.73 1006.57 1006.41 1006.41 1006.45 1006.41 1006.33 1006.01 1005.49 1005.13 1004.93 1004.61 1004.29 1004.05 1003.77
Wind_Speed
8 7 7 7 7 7 7 7 7 6 6 6 6 7 6 5 5 6 7 7 8 8 9 9 9 9 8 10 10 10 10 10 10 11 12 13 13 14 13 14 13 11
9 8 7 6 6 6 7 8 8 7 7 6 6 7 7 7 5 5 5 6 7 8 9 8 9 9 9 9 9 10 10 10 11 8 11 13 13 13 15 14 14 14
9 8 8 8 7 8 9 8 7 7 7 7 7 6 5 6 7 5 5 6 7 8 8 8 8 9 8 8 8 9 10 10 11 10 11 13 12 13 13 13 13 14
10 9 8 7 7 7 7 7 7 7 7 7 7 7 6 5 6 6 6 6 7 6 6 7 8 8 7 7 7 8 9 10 10 8 11 11 11 12 12 11 13 12
9 9 9 9 8 8 7 6 6 6 6 6 7 7 7 6 5 5 6 6 5 6 6 6 7 7 7 7 8 9 9 9 9 10 10 11 11 11 11 11 12 14
6 7 7 7 7 7 6 6 6 6 6 6 6 6 5 5 5 5 5 6 5 6 7 7 7 7 7 7 7 9 9 8 9 10 12 12 11 10 10 11 13 14
8 7 8 7 7 6 6 6 6 6 6 5 6 6 6 6 5 4 5 5 6 6 6 7 7 7 7 7 8 8 8 9 9 10 12 12 11 12 11 12 13 14
6 5 5 6 6 6 7 7 8 7 7 7 7 6 6 7 6 4 3 4 5 6 7 7 7 7 7 7 8 8 9 7 8 10 11 12 11 13 12 11 12 15
5 5 4 4 4 4 6 6 7 8 8 8 7 7 7 6 6 6 5 5 5 5 6 7 7 8 6 7 8 9 9 9 9 10 11 12 12 14 13 12 13 15
5 6 6 6 7 6 7 6 6 6 6 7 6 6 7 6 6 6 6 6 6 6 6 7 7 7 7 7 8 8 9 10 10 10 12 13 13 13 13 13 14 14
5 5 6 7 8 6 7 7 6 6 6 7 7 6 6 6 6 6 6 6 5 6 7 7 7 7 7 7 7 7 9 10 10 10 11 12 13 13 13 13 14 15
5 5 6 6 7 7 7 7 7 6 6 6 7 7 7 6 7 6 6 7 6 6 6 7 7 7 7 7 7 7 8 9 10 10 11 11 12 13 13 13 14 14
5 6 6 6 6 6 6 6 6 6 5 6 6 6 6 7 7 6 6 6 7 6 6 6 7 7 8 8 8 8 9 10 10 10 11 11 11 12 12 13 15 15
5 5 6 6 6 7 6 7 7 6 6 6 6 6 7 7 7 7 7 6 6 6 7 6 6 6 7 7 8 9 9 10 10 11 11 12 12 12 12 13 13 14
6 5 5 6 6 6 7 8 8 8 8 7 6 6 5 5 6 7 7 7 6 6 6 5 5 6 5 6 6 7 8 10 11 12 12 12 12 12 13 13 13 12
7 6 6 7 7 7 7 8 8 8 8 8 8 7 7 6 6 6 6 6 7 7 6 5 5 4 7 12 11 8 8 8 9 10 11 13 13 14 13 13 13 13
8 7 7 7 7 7 5 7 11 9 8 7 7 6 8 7 7 8 6 6 7 7 7 6 5 5 8 9 12 16 12 9 9 10 10 12 13 14 15 14 13 13
8 8 8 7 7 5 6 7 7 8 8 8 9 8 7 7 9 8 9 8 7 7 7 7 7 8 11 12 13 14 13 10 9 9 9 11 11 13 13 13 13 13
8 7 6 5 4 4 4 6 8 8 9 8 7 7 8 8 10 10 10 9 8 9 8 8 8 9 12 14 14 14 16 14 9 9 10 10 12 12 13 13 12 12
8 7 8 8 7 6 5 6 7 8 9 8 9 8 7 8 9 10 9 10 9 10 11 10 9 10 14 14 15 16 16 14 8 10 10 11 13 13 12 13 13 12
6 7 8 8 8 7 8 9 10 10 10 9 8 7 8 9 10 9 8 9 9 10 10 11 10 15 16 17 17 17 17 15 9 9 10 10 12 12 13 13 13 13
8 9 9 7 6 6 8 10 10 10 11 11 9 8 8 9 9 8 10 12 11 10 10 12 13 17 17 17 17 17 18 9 8 9 10 10 11 12 12 12 13 13
11 10 10 9 6 8 10 10 10 11 11 8 10 10 10 10 10 10 10 11 12 12 12 13 12 15 17 17 17 17 13 8 9 9 10 11 12 12 11 12 13 13
9 9 10 11 10 11 11 8 8 8 10 9 10 10 11 11 10 11 11 11 11 13 12 12 13 15 19 19 20 20 15 10 9 9 10 11 11 12 10 11 13 18
10 11 12 11 11 11 11 12 13 12 10 10 10 9 10 10 10 10 12 13 13 14 16 16 14 16 20 22 22 21 15 9 9 9 10 11 11 11 11 10 12 13
11 12 13 12 13 13 12 12 12 12 12 10 9 8 9 10 11 11 14 14 13 13 13 14 15 16 18 24 23 22 20 11 8 8 10 12 11 11 11 10 11 11
Wind_Direction
3 355 343 336 328 325 320 317 314 311 303 303 299 297 291 282 254 227 218 222 228 230 227 227 223 220 218 220 215 220 216 215 213 211 215 216 222 221 223 221 221 219
8 0 349 341 334 333 328 323 317 310 302 294 291 298 301 301 288 246 226 225 230 232 234 231 228 226 220 217 213 220 226 222 221 214 218 218 222 221 225 223 224 226
11 6 359 352 343 335 329 324 318 309 302 300 295 286 284 296 296 270 244 232 233 235 234 234 232 231 227 224 221 223 225 226 227 220 221 221 220 221 224 223 227 225
9 10 5 355 349 340 332 326 320 315 313 310 306 304 297 286 277 273 268 249 241 239 237 234 233 232 230 228 225 228 227 230 231 223 227 230 225 226 227 225 229 230
7 5 6 2 354 349 338 331 326 319 315 313 308 303 300 295 285 275 266 257 245 241 240 236 232 232 228 229 222 229 227 232 227 229 233 231 228 224 228 225 228 230
19 15 9 1 353 353 345 340 333 324 319 321 316 313 303 297 288 281 275 269 255 243 236 235 235 232 229 230 228 231 230 229 227 223 232 235 233 226 227 227 229 231
9 10 10 7 1 360 352 346 344 334 340 333 320 313 311 299 292 289 288 282 273 261 248 240 235 234 229 230 232 234 232 233 234 230 231 234 231 232 226 227 230 232
349 345 353 355 4 6 3 2 353 350 344 339 335 325 326 316 310 301 292 287 284 280 273 259 247 239 232 228 231 234 235 231 235 235 236 236 234 236 228 224 227 233
355 348 342 338 344 349 360 356 358 358 351 350 338 330 325 318 314 319 313 309 301 290 281 275 267 259 247 235 232 233 237 235 231 232 235 238 237 235 233 230 231 233
348 347 349 354 355 352 354 349 348 355 345 349 342 329 329 322 323 320 318 313 310 300 291 284 276 266 260 250 245 241 240 240 235 231 234 239 241 241 237 234 234 235
345 347 345 348 351 348 349 346 351 349 344 339 334 331 330 332 327 332 327 320 310 305 301 294 287 279 273 266 257 247 246 247 245 239 236 237 239 242 242 237 237 237
338 340 341 344 343 340 342 344 343 341 341 339 339 334 333 333 330 331 330 319 313 301 294 294 294 289 282 278 273 265 259 254 252 249 246 242 240 241 242 240 242 241
334 336 335 335 335 333 333 332 333 329 325 333 333 328 334 336 333 326 315 305 298 294 287 286 286 286 285 282 279 275 271 270 266 259 254 249 248 247 243 242 241 242
324 321 324 328 329 329 331 329 328 326 325 320 319 324 331 336 329 325 317 305 293 287 282 277 269 271 273 275 276 277 276 272 269 267 265 260 255 251 248 245 241 241
316 318 314 323 325 326 329 331 328 324 323 320 318 311 308 309 309 312 310 305 298 291 287 277 266 255 256 264 272 271 266 267 269 270 269 268 265 259 253 250 248 244
318 316 317 322 326 325 330 329 324 319 316 315 313 310 310 301 291 288 288 288 295 293 285 277 267 255 244 246 251 258 265 266 265 262 264 267 270 270 265 257 253 249
321 319 324 321 315 318 317 325 321 318 314 311 307 304 305 303 302 299 289 290 290 288 289 285 274 265 263 257 252 256 257 258 257 259 257 259 261 264 267 266 262 256
317 317 315 312 313 312 316 312 308 304 302 303 305 308 308 309 303 297 298 297 289 288 286 283 285 278 274 273 271 273 267 260 256 255 253 254 256 258 261 262 262 263
307 307 301 293 283 283 287 295 303 310 308 297 291 296 302 302 304 305 300 296 293 293 290 285 279 273 274 277 274 271 271 267 261 255 252 252 252 254 257 258 260 261
295 295 295 294 299 298 295 291 298 298 298 297 295 293 289 291 290 290 293 296 297 298 294 288 280 278 278 274 273 272 273 271 260 259 256 254 254 252 253 255 255 258
279 280 280 283 288 293 299 301 303 304 304 301 289 283 287 290 292 290 285 284 290 293 291 287 283 277 276 273 274 275 274 274 265 261 259 256 255 253 252 252 252 252
273 275 273 264 264 274 284 287 289 293 299 299 290 284 282 285 282 283 290 291 285 279 280 282 282 280 278 274 272 274 276 275 270 264 262 259 258 255 252 250 249 247
276 275 274 267 256 267 271 274 279 285 287 286 282 281 283 282 284 284 283 282 286 284 279 277 275 274 275 273 272 272 273 268 269 268 266 264 261 259 256 253 248 243
275 275 275 269 264 266 268 265 270 275 278 277 273 275 277 281 283 284 282 278 276 278 274 274 276 272 272 272 271 271 265 262 263 264 263 263 266 262 258 255 250 244
288 285 279 275 270 270 273 277 278 275 277 278 268 266 271 278 276 276 280 280 276 273 274 272 271 274 273 270 267 265 262 254 256 259 261 261 261 263 260 257 259 251
295 290 284 282 282 283 281 280 280 276 272 269 265 266 274 274 274 271 275 277 277 277 276 276 275 274 272 269 263 259 254 247 248 252 255 260 258 261 264 260 258 259